Observations for Trim Patrick St
| Time | AQI | Temp °C | Hum % | Pres Pa | CO μg/m³ | H₂S μg/m³ | NO μg/m³ | NO₂ μg/m³ | O₃ μg/m³ | SO₂ μg/m³ | PM1 μg/m³ | PM2.5 μg/m³ | PM10 μg/m³ |
|---|---|---|---|---|---|---|---|---|---|---|---|---|---|
| Saturday 1 August 2026 | |||||||||||||
| 03:31 | 2 | 12 | 75 | 38,460 | 0.41 | 2.59 | 3.98 | 16.32 | 34.34 | 0 | 7.14 | 14.06 | 15.46 |
| 03:30 | 2 | 12 | 75 | 38,460 | 0.41 | 3.44 | 4.03 | 19.47 | 39.86 | 0 | 9.71 | 14.79 | 16.27 |
| 03:29 | 2 | 12 | 73 | 38,460 | 0.4 | 2.9 | 4.01 | 15.56 | 23.13 | 0 | 8 | 14.94 | 16.44 |
| 03:28 | 2 | 12.1 | 73 | 38,460 | 0.37 | 2.88 | 3.99 | 18.99 | 34.15 | 0 | 7.14 | 12.81 | 14.09 |
| 03:27 | 2 | 12.1 | 75 | 38,460 | 0.37 | 3.75 | 4 | 18.04 | 40.69 | 0 | 8 | 13.33 | 14.66 |
| 03:26 | 2 | 12.1 | 76 | 38,460 | 0.36 | 3.68 | 3.98 | 18.44 | 39.13 | 0 | 8.86 | 16.1 | 17.71 |
| 03:25 | 2 | 12.1 | 76 | 38,460 | 0.36 | 3.99 | 3.98 | 27.74 | 48.08 | 0 | 7.14 | 11.87 | 13.06 |
| 03:24 | 2 | 12.1 | 75 | 38,460 | 0.37 | 2 | 3.99 | 13.86 | 26.89 | 0 | 7.14 | 12.62 | 13.88 |
| 03:22 | 2 | 12.1 | 75 | 38,460 | 0.37 | 3.29 | 4 | 16.23 | 40 | 0 | 8.86 | 14.07 | 15.47 |
| 03:21 | 2 | 12.2 | 75 | 38,460 | 0.35 | 3.73 | 3.97 | 20.09 | 47.84 | 0 | 8.86 | 14.08 | 15.49 |
| 03:20 | 2 | 12.2 | 75 | 38,460 | 0.38 | 3.29 | 3.96 | 18.15 | 36.63 | 0 | 7.14 | 13.36 | 14.7 |
| 03:18 | 2 | 12.2 | 75 | 38,460 | 0.36 | 2.18 | 3.94 | 12.81 | 29.22 | 0 | 8 | 13.35 | 14.68 |
| 03:17 | 2 | 12.2 | 75 | 38,460 | 0.35 | 3.65 | 3.88 | 19.34 | 41.51 | 0 | 8.86 | 15.51 | 16.96 |
| 03:16 | 2 | 12.2 | 73 | 38,460 | 0.37 | 3.89 | 3.91 | 18.32 | 28.79 | 0 | 7.14 | 12.1 | 13.31 |
| 03:15 | 2 | 12.2 | 75 | 38,460 | 0.36 | 3.42 | 3.92 | 22.82 | 48.64 | 0 | 6.29 | 11.25 | 12.37 |
| 03:14 | 2 | 12.3 | 76 | 38,460 | 0.35 | 2.52 | 3.93 | 15.31 | 32.84 | 0 | 5.43 | 11.18 | 12.3 |
| 03:13 | 2 | 12.3 | 75 | 38,460 | 0.36 | 3.66 | 3.94 | 18.06 | 38.3 | 0 | 6.29 | 11.95 | 13.15 |
| 03:12 | 2 | 12.3 | 74 | 38,460 | 0.34 | 3.55 | 3.94 | 21.24 | 44.47 | 0 | 8 | 13.5 | 14.85 |
| 03:11 | 2 | 12.3 | 75 | 38,460 | 0.35 | 3.76 | 3.94 | 21.49 | 44.94 | 0 | 8.86 | 14.11 | 15.52 |
| 03:10 | 2 | 12.3 | 74 | 38,460 | 0.35 | 3.58 | 3.94 | 20.63 | 42.66 | 0 | 7.14 | 14.14 | 15.55 |